User: anonymous   Login
Location: Dąbrówka
(52.2799°N, 15.8070°E)
Time: 11:47:53
(UTC+02:00)
Language:

BEESAT 3 - Orbit

View from above orbital plane
View from above orbital plane
View from above satellite
View from above satellite

Ground track
Ground track

The orbit data is extracted from the following two-line orbital elements,

1 39134U 13015E   19169.95201812 +.00000639 +00000-0 +38639-4 0  9995
2 39134 064.8637 019.5956 0030442 302.8849 056.9350 15.20152883340255
Epoch (UTC): 18 June 2019 22:50:54
Eccentricity: 0.0030442
inclination: 64.8637°
perigee height: 484 km
apogee height: 526 km
right ascension of ascending node: 19.5956°
argument of perigee: 302.8849°
revolutions per day: 15.20152883
mean anomaly at epoch: 56.9350°
orbit number at epoch: 34025

The dashed part of the orbit path shows where the satellite is in the earth's shadow,  

DLR